QPF
0.00 0.00 0.00 0.00 0.00 0.00 0.00 0.00 0.00 0.00 0.00 0.00 0.00 0.00 0.00 0.00 0.00 0.01 0.02 0.02 0.04 0.03 0.04 0.04 0.02 0.00 0.01 0.01 0.00 0.00 0.00 0.00 0.00 0.00 0.00 0.00 0.00 0.00 0.00 0.00 0.00 0.00 0.00
0.00 0.00 0.00 0.00 0.00 0.00 0.00 0.00 0.00 0.00 0.00 0.00 0.00 0.00 0.00 0.00 0.00 0.00 0.00 0.00 0.01 0.01 0.01 0.01 0.02 0.02 0.02 0.02 0.01 0.00 0.00 0.00 0.00 0.00 0.01 0.00 0.00 0.00 0.00 0.00 0.00 0.00 0.00
0.00 0.00 0.00 0.00 0.00 0.00 0.00 0.00 0.00 0.00 0.00 0.00 0.00 0.00 0.00 0.00 0.00 0.00 0.00 0.00 0.00 0.00 0.00 0.00 0.01 0.03 0.03 0.03 0.01 0.01 0.00 0.00 0.00 0.00 0.00 0.00 0.00 0.00 0.00 0.00 0.00 0.00 0.00
0.00 0.00 0.00 0.00 0.00 0.00 0.00 0.00 0.00 0.00 0.00 0.00 0.00 0.00 0.00 0.00 0.00 0.00 0.00 0.00 0.00 0.00 0.00 0.00 0.00 0.00 0.01 0.02 0.02 0.01 0.01 0.01 0.01 0.00 0.00 0.00 0.00 0.00 0.00 0.00 0.00 0.00 0.00
0.00 0.00 0.00 0.00 0.00 0.00 0.00 0.00 0.00 0.00 0.00 0.00 0.00 0.00 0.00 0.00 0.00 0.00 0.00 0.00 0.00 0.00 0.00 0.00 0.00 0.00 0.00 0.00 0.00 0.00 0.01 0.01 0.01 0.01 0.00 0.00 0.00 0.00 0.00 0.00 0.00 0.00 0.00
0.00 0.00 0.00 0.00 0.00 0.00 0.00 0.00 0.00 0.00 0.00 0.00 0.00 0.00 0.00 0.00 0.00 0.00 0.00 0.00 0.00 0.00 0.00 0.00 0.00 0.00 0.00 0.00 0.00 0.00 0.00 0.00 0.00 0.00 0.00 0.00 0.00 0.00 0.00 0.00 0.00 0.00 0.00
0.00 0.00 0.00 0.00 0.00 0.00 0.00 0.00 0.00 0.00 0.00 0.00 0.00 0.00 0.00 0.00 0.00 0.00 0.00 0.00 0.00 0.00 0.00 0.00 0.00 0.00 0.00 0.00 0.00 0.00 0.00 0.00 0.00 0.00 0.00 0.00 0.00 0.00 0.00 0.00 0.00 0.00 0.00
0.00 0.00 0.00 0.00 0.00 0.00 0.00 0.00 0.00 0.00 0.00 0.00 0.00 0.00 0.00 0.00 0.00 0.00 0.00 0.00 0.00 0.00 0.00 0.00 0.00 0.00 0.00 0.00 0.00 0.00 0.00 0.00 0.00 0.00 0.00 0.00 0.00 0.00 0.00 0.00 0.00 0.00 0.00
0.00 0.00 0.00 0.00 0.00 0.00 0.00 0.00 0.00 0.00 0.00 0.00 0.00 0.00 0.00 0.00 0.00 0.00 0.00 0.00 0.00 0.00 0.00 0.00 0.00 0.00 0.00 0.00 0.00 0.00 0.00 0.00 0.00 0.00 0.00 0.00 0.00 0.00 0.00 0.00 0.00 0.00 0.00
0.00 0.00 0.00 0.00 0.00 0.00 0.00 0.00 0.00 0.00 0.00 0.00 0.00 0.00 0.00 0.00 0.00 0.00 0.00 0.00 0.00 0.00 0.00 0.00 0.00 0.00 0.00 0.00 0.00 0.00 0.00 0.00 0.00 0.00 0.00 0.00 0.00 0.00 0.00 0.00 0.00 0.00 0.00
0.00 0.00 0.00 0.00 0.00 0.00 0.00 0.00 0.00 0.00 0.00 0.00 0.00 0.00 0.00 0.00 0.00 0.00 0.00 0.00 0.00 0.00 0.00 0.00 0.00 0.00 0.00 0.00 0.00 0.00 0.00 0.00 0.00 0.00 0.00 0.00 0.00 0.00 0.00 0.00 0.00 0.00 0.00
0.00 0.00 0.00 0.00 0.00 0.00 0.00 0.00 0.00 0.00 0.00 0.00 0.00 0.00 0.00 0.00 0.00 0.00 0.00 0.00 0.00 0.00 0.00 0.00 0.00 0.00 0.00 0.00 0.00 0.00 0.00 0.00 0.00 0.00 0.00 0.00 0.00 0.00 0.00 0.00 0.00 0.00 0.00
0.00 0.00 0.00 0.00 0.00 0.00 0.00 0.00 0.00 0.00 0.00 0.00 0.00 0.00 0.00 0.00 0.00 0.00 0.00 0.00 0.00 0.00 0.00 0.00 0.00 0.00 0.00 0.00 0.00 0.00 0.00 0.00 0.00 0.00 0.00 0.00 0.00 0.00 0.00 0.00 0.00 0.00 0.00
0.00 0.00 0.00 0.00 0.00 0.00 0.00 0.00 0.00 0.00 0.00 0.00 0.00 0.00 0.00 0.00 0.00 0.00 0.00 0.00 0.00 0.00 0.00 0.00 0.00 0.00 0.00 0.00 0.00 0.00 0.00 0.00 0.00 0.00 0.00 0.00 0.00 0.00 0.00 0.00 0.00 0.00 0.00
0.00 0.00 0.00 0.00 0.00 0.00 0.00 0.00 0.00 0.00 0.00 0.00 0.00 0.00 0.00 0.00 0.00 0.00 0.00 0.00 0.00 0.00 0.00 0.00 0.00 0.00 0.00 0.00 0.00 0.00 0.00 0.00 0.00 0.00 0.00 0.00 0.00 0.00 0.00 0.00 0.00 0.00 0.00
0.00 0.00 0.00 0.00 0.00 0.00 0.00 0.00 0.00 0.00 0.00 0.00 0.00 0.00 0.00 0.00 0.00 0.00 0.00 0.00 0.00 0.00 0.00 0.00 0.00 0.00 0.00 0.01 0.01 0.01 0.00 0.00 0.00 0.00 0.00 0.00 0.00 0.00 0.00 0.00 0.00 0.00 0.00
0.00 0.00 0.00 0.00 0.00 0.00 0.00 0.00 0.00 0.00 0.00 0.00 0.00 0.00 0.00 0.00 0.00 0.00 0.00 0.00 0.00 0.00 0.00 0.00 0.00 0.00 0.00 0.00 0.01 0.01 0.00 0.00 0.00 0.00 0.00 0.00 0.00 0.00 0.00 0.00 0.00 0.00 0.00
0.00 0.00 0.00 0.00 0.00 0.00 0.00 0.00 0.00 0.00 0.00 0.00 0.00 0.00 0.00 0.00 0.00 0.00 0.00 0.00 0.00 0.00 0.00 0.00 0.00 0.00 0.00 0.00 0.00 0.01 0.00 0.00 0.00 0.00 0.00 0.00 0.00 0.00 0.00 0.00 0.00 0.00 0.00
0.00 0.00 0.00 0.00 0.00 0.00 0.00 0.00 0.00 0.00 0.00 0.00 0.00 0.00 0.00 0.00 0.00 0.00 0.00 0.00 0.00 0.00 0.00 0.00 0.00 0.00 0.00 0.00 0.00 0.00 0.00 0.00 0.00 0.00 0.00 0.00 0.00 0.00 0.00 0.00 0.00 0.00 0.00
0.00 0.00 0.00 0.00 0.00 0.00 0.00 0.00 0.00 0.00 0.00 0.00 0.00 0.00 0.00 0.00 0.00 0.00 0.00 0.00 0.00 0.00 0.00 0.00 0.00 0.00 0.00 0.00 0.00 0.00 0.00 0.00 0.00 0.00 0.00 0.00 0.00 0.01 0.01 0.01 0.00 0.00 0.00
0.00 0.00 0.00 0.00 0.00 0.00 0.00 0.00 0.00 0.00 0.00 0.00 0.00 0.00 0.00 0.00 0.00 0.00 0.00 0.00 0.00 0.00 0.00 0.00 0.00 0.00 0.00 0.00 0.00 0.00 0.00 0.00 0.00 0.00 0.00 0.00 0.00 0.01 0.02 0.02 0.01 0.00 0.00
0.00 0.00 0.00 0.00 0.00 0.00 0.00 0.00 0.00 0.00 0.00 0.00 0.00 0.00 0.00 0.00 0.00 0.00 0.00 0.00 0.00 0.00 0.00 0.00 0.00 0.00 0.00 0.00 0.00 0.00 0.00 0.00 0.00 0.00 0.00 0.00 0.00 0.00 0.00 0.01 0.01 0.01 0.01
0.00 0.00 0.00 0.00 0.00 0.00 0.00 0.00 0.00 0.00 0.00 0.00 0.00 0.00 0.00 0.00 0.00 0.00 0.00 0.00 0.00 0.00 0.00 0.00 0.00 0.00 0.00 0.00 0.00 0.00 0.00 0.00 0.00 0.00 0.01 0.01 0.00 0.00 0.00 0.00 0.00 0.01 0.00
0.00 0.00 0.00 0.00 0.00 0.00 0.00 0.00 0.00 0.00 0.00 0.00 0.00 0.00 0.00 0.00 0.00 0.00 0.00 0.00 0.00 0.00 0.00 0.00 0.00 0.00 0.00 0.00 0.00 0.00 0.00 0.00 0.00 0.00 0.00 0.00 0.00 0.00 0.00 0.00 0.00 0.00 0.00
0.00 0.00 0.00 0.00 0.00 0.00 0.00 0.00 0.00 0.00 0.00 0.00 0.00 0.00 0.00 0.00 0.00 0.00 0.00 0.00 0.00 0.00 0.00 0.00 0.00 0.00 0.00 0.00 0.00 0.00 0.00 0.00 0.00 0.00 0.00 0.00 0.00 0.00 0.00 0.00 0.00 0.00 0.00
0.00 0.00 0.00 0.00 0.00 0.00 0.00 0.00 0.00 0.00 0.00 0.00 0.00 0.00 0.00 0.00 0.00 0.00 0.00 0.00 0.00 0.00 0.00 0.00 0.00 0.00 0.00 0.01 0.01 0.01 0.02 0.02 0.03 0.01 0.00 0.00 0.00 0.00 0.00 0.00 0.00 0.00 0.00
MSLP
1017.82 1017.60 1016.77 1016.06 1015.11 1014.51 1014.17 1014.11 1013.79 1013.75 1013.16 1012.97 1013.18 1013.20 1013.20 1013.34 1013.60 1013.35 1013.82 1013.57 1014.17 1012.97 1012.98 1013.61 1014.29 1014.83 1015.43 1016.22 1017.23 1018.16 1018.91 1020.26 1020.55 1020.86 1022.94 1023.84 1024.04 1024.55 1024.54 1024.22 1023.79 1024.19 1023.94
1018.67 1018.42 1017.70 1016.94 1016.26 1015.84 1015.47 1015.02 1014.86 1014.71 1014.18 1014.03 1014.23 1014.12 1014.16 1013.95 1014.38 1014.15 1014.62 1013.55 1014.64 1014.43 1014.27 1013.93 1014.49 1014.89 1015.60 1016.44 1017.03 1017.53 1018.93 1019.88 1019.93 1020.55 1022.25 1024.27 1024.85 1025.43 1025.21 1025.10 1025.11 1025.23 1025.09
1019.86 1019.54 1018.86 1018.22 1017.64 1017.06 1016.60 1016.30 1015.90 1015.35 1015.14 1014.63 1014.36 1014.39 1014.17 1014.24 1014.53 1014.45 1015.13 1015.34 1014.58 1013.89 1015.24 1014.76 1015.06 1014.88 1015.97 1016.31 1016.68 1017.18 1017.47 1018.96 1019.99 1019.89 1020.50 1023.04 1024.41 1025.93 1026.28 1026.18 1026.12 1026.17 1025.63
1020.95 1020.59 1019.73 1019.49 1019.38 1018.71 1017.83 1017.43 1016.82 1016.47 1016.14 1015.61 1015.13 1015.07 1015.15 1015.27 1016.08 1016.02 1015.49 1015.15 1015.78 1015.80 1015.14 1015.76 1015.61 1016.16 1015.63 1016.91 1017.44 1016.98 1017.15 1017.46 1018.83 1020.16 1020.31 1020.44 1021.43 1024.01 1026.55 1026.82 1026.98 1027.04 1026.25
1021.98 1020.90 1021.30 1021.30 1020.88 1020.19 1019.34 1018.70 1018.27 1017.67 1017.20 1016.72 1016.25 1015.95 1016.17 1016.20 1016.59 1016.30 1016.63 1016.64 1016.93 1016.37 1015.99 1016.14 1016.10 1016.63 1016.58 1017.01 1017.75 1018.00 1017.63 1017.64 1017.80 1018.57 1019.96 1020.52 1021.20 1021.83 1023.47 1025.97 1027.19 1027.22 1027.08
1022.52 1022.32 1022.44 1022.25 1021.87 1021.13 1020.54 1019.92 1019.42 1018.94 1018.53 1017.90 1017.27 1017.08 1017.09 1017.15 1017.12 1017.28 1017.03 1016.85 1017.20 1016.82 1016.32 1016.85 1016.45 1017.44 1017.04 1017.52 1016.94 1018.72 1018.54 1018.74 1018.53 1019.09 1019.12 1019.80 1019.88 1021.74 1022.38 1024.53 1026.27 1026.86 1027.63
1023.55 1023.37 1023.57 1023.38 1023.12 1022.66 1022.19 1021.57 1020.94 1020.50 1019.83 1019.25 1018.48 1018.27 1018.14 1018.03 1017.67 1018.16 1017.79 1017.99 1017.96 1018.52 1017.75 1018.58 1017.74 1016.89 1018.19 1017.44 1016.54 1018.95 1018.99 1019.37 1019.92 1019.62 1019.28 1019.80 1019.70 1020.30 1020.87 1022.06 1024.26 1026.22 1027.74
1024.58 1024.75 1025.27 1024.96 1024.83 1024.34 1023.86 1023.26 1022.55 1021.88 1021.21 1020.68 1020.10 1019.59 1019.15 1019.02 1018.92 1018.86 1018.26 1019.14 1019.67 1019.36 1018.23 1019.03 1018.28 1017.73 1018.67 1018.93 1017.91 1018.25 1019.25 1020.34 1019.83 1020.37 1020.55 1020.38 1020.35 1020.32 1020.75 1021.57 1022.67 1025.70 1027.19
1025.87 1026.29 1026.33 1026.22 1026.14 1025.75 1025.42 1024.76 1023.97 1023.16 1022.55 1022.18 1021.50 1021.12 1020.61 1020.27 1020.03 1020.09 1020.11 1020.22 1019.35 1019.93 1018.29 1019.76 1018.86 1019.23 1019.76 1018.90 1018.72 1019.42 1020.10 1020.39 1020.77 1020.67 1020.52 1021.27 1021.15 1021.39 1021.22 1021.52 1022.17 1023.06 1025.39
1026.87 1027.18 1027.44 1027.61 1027.56 1027.38 1026.71 1025.92 1025.25 1024.59 1024.28 1023.68 1022.98 1022.45 1022.04 1021.77 1021.59 1021.31 1021.11 1020.98 1020.80 1020.19 1019.80 1020.45 1019.40 1019.99 1020.01 1019.17 1019.79 1020.08 1020.01 1020.47 1020.74 1020.91 1021.31 1021.91 1021.82 1021.83 1022.22 1022.34 1021.98 1023.21 1023.76
1027.98 1028.57 1028.83 1028.74 1028.70 1028.45 1027.74 1027.30 1026.45 1025.85 1025.23 1024.72 1024.38 1023.97 1023.73 1023.39 1022.87 1022.51 1022.29 1022.06 1021.94 1021.79 1021.57 1020.68 1021.15 1020.85 1020.71 1019.92 1020.75 1020.76 1020.74 1021.12 1021.48 1021.24 1021.96 1021.70 1022.29 1021.83 1022.76 1022.77 1022.41 1023.22 1023.46
1028.93 1029.18 1029.24 1029.42 1029.43 1029.28 1028.93 1028.40 1027.91 1027.30 1026.81 1026.31 1025.82 1025.47 1025.21 1024.63 1024.12 1023.84 1023.36 1023.06 1022.88 1022.57 1022.43 1022.12 1022.12 1021.75 1021.26 1021.56 1022.05 1021.78 1021.38 1021.58 1021.71 1021.73 1021.51 1022.09 1022.19 1022.48 1022.67 1023.35 1023.56 1023.45 1023.49
1029.40 1029.61 1029.82 1030.18 1030.33 1030.09 1029.79 1029.60 1029.24 1028.69 1028.11 1027.64 1027.34 1026.99 1026.58 1026.09 1025.72 1025.34 1024.98 1024.54 1023.97 1023.51 1023.13 1022.84 1022.90 1022.79 1022.99 1022.87 1022.86 1022.49 1021.97 1022.29 1022.50 1022.30 1022.72 1022.47 1022.58 1022.93 1023.18 1023.60 1024.01 1023.92 1023.99
1029.85 1030.28 1030.62 1030.90 1030.92 1030.73 1030.70 1030.64 1030.33 1029.88 1029.32 1028.81 1028.54 1028.29 1028.05 1027.69 1027.12 1026.66 1026.34 1025.80 1025.21 1024.86 1024.48 1024.15 1023.84 1023.77 1023.77 1023.54 1023.21 1022.90 1022.98 1023.31 1023.27 1023.11 1023.33 1023.55 1023.61 1023.14 1023.24 1023.57 1024.37 1024.49 1024.65
1030.20 1030.64 1031.05 1031.21 1031.29 1031.34 1031.47 1031.34 1031.29 1030.91 1030.48 1030.13 1029.72 1029.45 1029.08 1028.62 1028.22 1027.77 1027.33 1026.92 1026.47 1026.22 1025.86 1025.40 1025.03 1024.87 1024.49 1024.07 1023.91 1023.90 1024.05 1024.08 1023.93 1023.79 1024.22 1023.82 1023.57 1023.41 1023.53 1023.85 1024.26 1024.51 1024.82
1030.72 1030.95 1031.14 1031.33 1031.60 1031.84 1032.16 1031.96 1032.01 1031.87 1031.43 1031.10 1030.95 1030.62 1030.17 1029.78 1029.33 1028.82 1028.46 1028.05 1027.70 1027.16 1026.84 1026.44 1026.20 1025.78 1025.36 1024.18 1023.94 1023.85 1024.21 1024.40 1024.64 1025.00 1024.94 1024.44 1024.07 1023.88 1023.66 1023.92 1024.23 1024.46 1024.63
1031.01 1031.06 1031.35 1031.58 1031.79 1032.10 1032.40 1032.52 1032.65 1032.49 1032.26 1032.19 1031.78 1031.49 1031.17 1030.82 1030.59 1030.24 1029.74 1029.23 1028.84 1028.37 1027.84 1027.30 1026.96 1026.74 1026.14 1025.05 1024.63 1024.62 1025.26 1025.35 1025.38 1025.40 1025.08 1024.88 1024.65 1024.72 1024.67 1024.35 1024.18 1024.50 1024.62
1030.96 1031.01 1030.95 1031.28 1031.52 1031.92 1032.37 1032.83 1033.10 1033.18 1033.07 1032.99 1032.56 1032.10 1031.94 1031.79 1031.47 1031.14 1030.81 1030.32 1029.90 1029.40 1028.79 1028.36 1027.90 1027.58 1027.01 1025.89 1025.57 1025.17 1025.64 1025.54 1025.51 1025.44 1025.26 1025.40 1024.95 1025.12 1025.10 1025.04 1025.11 1025.11 1025.27
1030.61 1030.81 1030.79 1030.92 1031.26 1031.65 1032.14 1032.88 1033.12 1033.54 1033.75 1033.55 1033.48 1032.82 1032.50 1032.30 1032.12 1031.91 1031.65 1031.16 1030.65 1030.06 1029.58 1029.29 1029.02 1028.54 1027.97 1027.22 1026.51 1026.09 1026.13 1026.05 1025.81 1025.69 1025.63 1025.19 1025.40 1025.39 1024.95 1024.98 1025.35 1025.31 1025.41
1030.16 1030.33 1030.34 1030.64 1031.07 1031.17 1031.77 1032.39 1032.56 1032.72 1032.73 1032.87 1032.88 1032.79 1032.75 1032.69 1032.65 1032.35 1031.97 1031.62 1031.28 1030.76 1030.46 1030.00 1029.70 1029.20 1028.85 1028.03 1026.97 1026.56 1026.61 1026.56 1026.21 1025.99 1025.66 1025.48 1025.34 1025.34 1025.21 1025.02 1025.34 1025.47 1025.69
1029.49 1029.56 1029.88 1030.28 1030.39 1030.68 1031.48 1031.81 1031.99 1032.06 1031.90 1031.85 1032.00 1032.18 1032.39 1032.42 1032.50 1032.55 1032.32 1032.02 1031.60 1031.35 1030.91 1030.50 1030.11 1029.52 1028.87 1028.50 1027.46 1026.75 1026.46 1026.43 1026.36 1026.33 1026.19 1025.95 1025.42 1025.18 1025.16 1024.72 1024.96 1025.00 1025.20
1028.83 1028.90 1029.31 1029.50 1029.53 1029.88 1030.70 1031.07 1031.36 1030.90 1031.35 1031.51 1031.75 1031.85 1031.82 1032.03 1032.17 1032.18 1032.18 1032.08 1031.81 1031.77 1031.38 1030.82 1029.90 1029.32 1028.95 1028.22 1027.70 1027.00 1026.51 1026.11 1026.10 1026.10 1026.04 1026.01 1025.60 1025.19 1025.04 1024.76 1024.71 1024.66 1024.35
1028.21 1028.24 1028.65 1028.78 1028.83 1029.13 1029.54 1029.91 1029.72 1030.11 1030.54 1030.92 1031.26 1031.37 1031.50 1031.70 1031.86 1032.03 1032.01 1032.29 1031.95 1032.13 1031.58 1031.10 1030.33 1029.62 1028.82 1028.15 1027.64 1027.28 1026.81 1026.75 1026.32 1026.02 1026.14 1025.70 1025.68 1025.19 1024.66 1024.39 1024.29 1024.42 1024.61
1027.70 1027.78 1028.03 1028.18 1028.27 1028.33 1028.46 1028.80 1028.88 1029.18 1029.74 1030.33 1030.61 1030.77 1031.23 1031.25 1031.35 1031.47 1031.43 1031.78 1032.14 1031.72 1031.19 1030.72 1030.22 1029.39 1028.80 1028.11 1027.84 1027.60 1027.54 1027.04 1026.44 1026.04 1026.20 1026.18 1025.52 1025.07 1025.05 1025.37 1025.37 1024.80 1024.69
1027.37 1027.36 1027.38 1027.39 1027.31 1027.41 1027.62 1027.75 1028.00 1028.47 1029.16 1029.46 1029.82 1030.17 1030.22 1030.59 1030.71 1030.73 1030.55 1030.22 1030.19 1029.94 1029.68 1029.09 1029.05 1028.96 1028.49 1027.63 1027.03 1026.39 1026.10 1025.96 1025.92 1025.72 1025.95 1025.90 1025.77 1025.55 1025.39 1025.28 1025.28 1025.28 1025.17
1026.98 1026.83 1026.66 1026.70 1026.60 1026.70 1026.79 1026.85 1027.07 1027.61 1028.21 1028.58 1029.02 1029.14 1029.63 1030.08 1030.21 1030.36 1029.73 1028.75 1028.07 1027.55 1027.05 1026.52 1026.46 1027.45 1026.92 1026.19 1025.54 1025.23 1025.06 1024.82 1024.42 1024.50 1025.17 1025.49 1025.78 1025.75 1025.49 1025.29 1025.18 1025.03 1025.03
Thickness
5439 5448 5459 5470 5483 5494 5504 5509 5517 5522 5533 5541 5546 5552 5560 5566 5570 5575 5573 5581 5580 5594 5597 5598 5596 5592 5592 5590 5587 5584 5582 5574 5577 5578 5567 5563 5566 5566 5571 5577 5585 5585 5589
5414 5423 5435 5446 5457 5467 5477 5486 5493 5499 5509 5517 5522 5529 5536 5547 5550 5559 5556 5561 5566 5571 5580 5585 5587 5587 5585 5582 5581 5581 5575 5571 5575 5575 5563 5555 5556 5552 5559 5563 5566 5570 5573
5387 5397 5409 5419 5430 5440 5451 5460 5469 5478 5485 5496 5506 5512 5521 5528 5535 5543 5542 5544 5559 5563 5554 5569 5571 5578 5573 5575 5576 5576 5579 5571 5566 5572 5572 5552 5556 5542 5543 5548 5551 5553 5561
5366 5375 5388 5394 5401 5413 5427 5436 5447 5455 5462 5473 5484 5492 5499 5504 5504 5514 5525 5534 5536 5540 5552 5553 5554 5549 5566 5557 5559 5567 5571 5573 5566 5559 5564 5567 5564 5550 5536 5535 5537 5539 5548
5349 5362 5364 5369 5378 5389 5401 5412 5421 5431 5441 5451 5461 5470 5474 5481 5486 5496 5500 5508 5512 5521 5532 5536 5543 5539 5545 5547 5541 5546 5555 5562 5565 5565 5556 5557 5556 5557 5549 5532 5525 5526 5532
5336 5342 5345 5350 5357 5367 5377 5388 5398 5406 5414 5426 5439 5447 5453 5459 5465 5472 5482 5491 5496 5508 5516 5518 5525 5521 5531 5530 5540 5530 5535 5536 5545 5546 5552 5551 5557 5543 5544 5531 5521 5522 5516
5319 5324 5326 5331 5337 5345 5353 5365 5374 5381 5391 5401 5413 5422 5430 5437 5446 5448 5459 5466 5473 5477 5488 5489 5501 5514 5508 5519 5529 5518 5520 5521 5521 5530 5537 5537 5545 5545 5544 5543 5526 5512 5503
5299 5302 5302 5308 5313 5322 5329 5339 5350 5359 5368 5376 5386 5396 5406 5414 5422 5429 5439 5439 5442 5452 5468 5470 5482 5493 5491 5493 5507 5511 5505 5504 5510 5508 5510 5517 5524 5530 5532 5531 5527 5504 5495
5278 5279 5283 5288 5293 5300 5306 5316 5327 5339 5347 5354 5363 5371 5380 5389 5397 5404 5410 5417 5428 5430 5451 5447 5461 5464 5465 5478 5485 5487 5487 5488 5491 5495 5500 5497 5505 5508 5515 5516 5518 5516 5497
5259 5262 5264 5267 5272 5277 5286 5296 5306 5316 5322 5330 5342 5351 5357 5365 5371 5378 5386 5393 5402 5415 5423 5422 5438 5439 5446 5460 5463 5466 5471 5473 5475 5479 5481 5479 5483 5490 5492 5496 5503 5496 5500
5242 5242 5244 5249 5254 5261 5271 5278 5289 5298 5307 5315 5321 5328 5334 5341 5350 5356 5362 5369 5375 5382 5392 5407 5409 5416 5425 5437 5436 5443 5449 5450 5454 5461 5460 5467 5466 5474 5472 5476 5483 5481 5485
5227 5229 5234 5238 5242 5248 5255 5262 5269 5278 5285 5293 5300 5307 5313 5321 5329 5335 5343 5349 5355 5362 5369 5376 5383 5394 5402 5404 5405 5416 5426 5430 5435 5441 5447 5447 5453 5455 5458 5455 5457 5462 5468
5215 5217 5220 5223 5226 5233 5240 5245 5252 5260 5268 5275 5280 5286 5292 5300 5306 5312 5318 5326 5334 5342 5349 5356 5360 5367 5371 5378 5383 5390 5401 5404 5409 5417 5419 5427 5432 5435 5438 5437 5437 5442 5446
5204 5203 5204 5207 5213 5221 5225 5230 5237 5243 5251 5258 5263 5267 5272 5278 5285 5292 5297 5304 5312 5318 5326 5333 5340 5344 5347 5352 5360 5369 5374 5379 5384 5391 5394 5399 5403 5411 5417 5418 5416 5419 5422
5192 5195 5196 5199 5203 5208 5212 5217 5222 5228 5235 5241 5246 5251 5256 5262 5268 5274 5279 5284 5290 5295 5301 5308 5315 5320 5326 5331 5336 5341 5346 5352 5359 5365 5368 5377 5383 5388 5394 5397 5396 5398 5401
5182 5186 5190 5193 5196 5198 5200 5206 5210 5214 5220 5226 5230 5235 5240 5245 5250 5256 5261 5266 5271 5277 5282 5287 5291 5297 5303 5313 5319 5326 5328 5331 5334 5336 5341 5351 5358 5364 5370 5372 5374 5378 5381
5171 5176 5179 5182 5185 5188 5191 5193 5197 5200 5206 5209 5215 5219 5224 5229 5232 5236 5241 5246 5250 5256 5262 5269 5272 5275 5281 5290 5296 5302 5302 5305 5308 5312 5319 5326 5332 5335 5340 5346 5353 5354 5358
5162 5167 5172 5174 5178 5178 5180 5180 5183 5186 5190 5195 5199 5205 5208 5211 5215 5219 5223 5228 5232 5237 5243 5247 5251 5255 5260 5268 5273 5281 5282 5285 5289 5293 5297 5300 5307 5310 5313 5318 5322 5328 5331
5154 5158 5162 5165 5168 5170 5171 5171 5174 5174 5175 5180 5183 5188 5192 5194 5199 5202 5204 5210 5214 5220 5225 5227 5230 5233 5238 5244 5250 5256 5261 5264 5267 5271 5274 5280 5282 5284 5292 5296 5296 5301 5306
5149 5151 5155 5155 5156 5163 5160 5163 5164 5164 5170 5173 5173 5175 5178 5180 5182 5185 5188 5192 5197 5202 5204 5207 5210 5215 5216 5222 5229 5234 5236 5241 5248 5250 5253 5257 5261 5261 5265 5270 5271 5274 5278
5145 5146 5146 5148 5151 5153 5150 5150 5152 5155 5163 5164 5164 5165 5166 5167 5168 5170 5173 5175 5178 5181 5183 5187 5189 5194 5199 5202 5208 5213 5218 5220 5224 5228 5232 5236 5240 5244 5245 5248 5250 5253 5255
5142 5145 5142 5143 5147 5147 5143 5145 5144 5152 5149 5150 5151 5153 5155 5155 5156 5154 5154 5156 5157 5159 5163 5164 5171 5175 5177 5181 5186 5191 5195 5199 5200 5204 5210 5214 5218 5222 5225 5230 5233 5235 5239
5139 5138 5135 5137 5139 5139 5138 5139 5142 5141 5141 5140 5139 5139 5140 5140 5139 5137 5137 5136 5135 5134 5135 5138 5142 5149 5156 5160 5162 5164 5167 5167 5172 5178 5180 5186 5191 5198 5202 5208 5212 5213 5215
5133 5134 5132 5132 5132 5133 5134 5132 5134 5133 5130 5129 5129 5127 5124 5125 5124 5126 5123 5119 5117 5114 5114 5115 5119 5126 5132 5136 5138 5137 5137 5139 5143 5148 5152 5155 5162 5171 5174 5178 5180 5186 5189
5127 5127 5127 5128 5128 5129 5127 5127 5128 5125 5122 5121 5120 5119 5120 5116 5115 5114 5112 5110 5113 5111 5109 5111 5111 5109 5111 5119 5121 5121 5122 5121 5120 5123 5123 5125 5130 5136 5140 5146 5151 5155 5159
5118 5119 5122 5122 5122 5122 5122 5122 5123 5120 5116 5115 5114 5112 5109 5107 5106 5104 5104 5109 5111 5112 5113 5115 5113 5107 5108 5109 5111 5110 5106 5104 5104 5106 5108 5105 5104 5107 5111 5115 5120 5126 5131